TimePDT,TemperatureF,Dew PointF,Humidity,Sea Level PressureIn,VisibilityMPH,Wind Direction,Wind SpeedMPH,Gust SpeedMPH,PrecipitationIn,Events,Conditions,WindDirDegrees,DateUTC
12:58 AM,80.1,50.4,35,29.68,10.0,SW,13.8,-,N/A,,Clear,220,2013-07-05 07:58:00
1:58 AM,78.4,49.8,37,29.68,10.0,SW,12.7,-,N/A,,Clear,220,2013-07-05 08:58:00
2:58 AM,77.0,49.3,38,29.68,10.0,SSW,11.5,-,N/A,,Clear,210,2013-07-05 09:58:00
3:58 AM,75.9,47.7,37,29.67,10.0,SSW,11.5,-,N/A,,Clear,210,2013-07-05 10:58:00
4:58 AM,76.3,47.8,37,29.67,10.0,SSW,11.5,-,N/A,,Clear,210,2013-07-05 11:58:00
5:58 AM,75.6,48.0,38,29.68,50.0,SSW,8.1,-,N/A,,Partly Cloudy,200,2013-07-05 12:58:00
6:58 AM,76.3,48.2,37,29.69,50.0,SW,6.9,-,N/A,,Mostly Cloudy,220,2013-07-05 13:58:00
7:58 AM,81.9,49.3,32,29.70,50.0,SW,8.1,-,N/A,,Mostly Cloudy,220,2013-07-05 14:58:00
8:58 AM,89.8,50.0,25,29.71,50.0,SW,12.7,-,N/A,,Mostly Cloudy,220,2013-07-05 15:58:00
9:48 AM,93.2,51.8,24,29.79,50.0,SSW,13.8,-,N/A,,Mostly Cloudy,200,2013-07-05 16:48:00
9:58 AM,91.8,50.7,25,29.70,50.0,SSW,13.8,-,N/A,,Mostly Cloudy,200,2013-07-05 16:58:00
10:58 AM,96.6,51.3,22,29.70,50.0,SSW,13.8,-,N/A,,Mostly Cloudy,200,2013-07-05 17:58:00
11:48 AM,98.6,51.8,21,29.79,50.0,SSW,13.8,19.6,N/A,,Mostly Cloudy,210,2013-07-05 18:48:00
11:58 AM,99.0,52.0,21,29.70,50.0,WSW,13.8,19.6,N/A,,Mostly Cloudy,240,2013-07-05 18:58:00
12:46 PM,100.4,51.8,20,29.77,50.0,SSW,13.8,20.7,N/A,,Scattered Clouds,200,2013-07-05 19:46:00
12:58 PM,100.9,51.4,19,29.68,50.0,SW,9.2,21.9,N/A,,Scattered Clouds,220,2013-07-05 19:58:00
1:48 PM,102.2,51.8,18,29.76,50.0,SW,12.7,24.2,N/A,,Mostly Cloudy,230,2013-07-05 20:48:00
1:58 PM,102.0,50.7,18,29.66,50.0,SW,13.8,19.6,N/A,,Mostly Cloudy,230,2013-07-05 20:58:00
1:59 PM,102.2,50.0,17,29.75,50.0,SW,17.3,21.9,N/A,,Mostly Cloudy,230,2013-07-05 20:59:00
2:34 PM,104.0,51.8,17,29.75,50.0,SW,19.6,28.8,N/A,,Mostly Cloudy,230,2013-07-05 21:34:00
2:58 PM,102.2,53.6,20,29.66,40.0,SW,24.2,29.9,N/A,,Mostly Cloudy,220,2013-07-05 21:58:00
3:38 PM,98.6,53.6,22,29.74,40.0,SSW,24.2,32.2,N/A,,Mostly Cloudy,210,2013-07-05 22:38:00
3:46 PM,96.8,53.6,23,29.74,40.0,SW,25.3,34.5,N/A,,Mostly Cloudy,230,2013-07-05 22:46:00
3:58 PM,96.3,53.4,24,29.65,40.0,SW,24.2,31.1,N/A,,Mostly Cloudy,230,2013-07-05 22:58:00
4:58 PM,97.3,52.7,22,29.63,40.0,SW,23.0,29.9,N/A,,Mostly Cloudy,230,2013-07-05 23:58:00
5:58 PM,96.6,50.4,21,29.64,40.0,SW,26.5,31.1,N/A,,Partly Cloudy,230,2013-07-06 00:58:00
6:58 PM,93.7,52.5,25,29.64,40.0,SW,20.7,27.6,N/A,,Partly Cloudy,230,2013-07-06 01:58:00
7:58 PM,88.5,51.1,28,29.67,40.0,SW,18.4,21.9,N/A,,Partly Cloudy,220,2013-07-06 02:58:00
8:58 PM,84.2,50.0,30,29.68,30.0,SW,11.5,-,N/A,,Partly Cloudy,230,2013-07-06 03:58:00
9:58 PM,81.9,48.9,32,29.70,30.0,SW,12.7,-,N/A,,Partly Cloudy,220,2013-07-06 04:58:00
10:58 PM,79.9,49.6,35,29.70,10.0,SW,13.8,-,N/A,,Clear,220,2013-07-06 05:58:00
11:58 PM,77.7,50.5,38,29.71,10.0,SW,11.5,-,N/A,,Clear,230,2013-07-06 06:58:00